This is the latest recevied weather packets stored in our database for station/object KD0ISH. If no packets are shown the sender has not sent any weather packets the latest 10 day(s).
| Time | Temp. | Humidity | Pressure | Rain* | Wind** | Luminosity | Snow |
|---|---|---|---|---|---|---|---|
| 1778180091 | 17.78° C | 51% | 1017.5 hPa | 0 mm | - | 169 W/m² | - |
| 1778179788 | 17.78° C | 50% | 1017.2 hPa | 0 mm | - | 143 W/m² | - |
| 1778179486 | 18.89° C | 50% | 1017.3 hPa | 0 mm | - | 138 W/m² | - |
| 1778179183 | 17.78° C | 49% | 1017.5 hPa | 0 mm | - | 464 W/m² | - |
| 1778178879 | 17.78° C | 49% | 1017.2 hPa | 0 mm | - | 214 W/m² | - |
| 1778178577 | 17.78° C | 49% | 1017.4 hPa | 0 mm | - | 212 W/m² | - |
| 1778178273 | 18.33° C | 48% | 1017.4 hPa | 0 mm | - | 127 W/m² | - |
| 1778177969 | 18.33° C | 49% | 1017.7 hPa | 0 mm | - | 137 W/m² | - |
| 1778177665 | 18.33° C | 47% | 1017.6 hPa | 0 mm | - | 265 W/m² | - |
| 1778177362 | 17.78° C | 49% | 1017.7 hPa | 0 mm | - | 206 W/m² | - |
| 1778177059 | 17.78° C | 52% | 1017.7 hPa | 0 mm | - | 149 W/m² | - |
| 1778176755 | 17.22° C | 50% | 1018.1 hPa | 0 mm | - | 699 W/m² | - |
| 1778176452 | 17.78° C | 50% | 1017.8 hPa | 0 mm | - | 122 W/m² | - |
| 1778176149 | 18.33° C | 48% | 1017.7 hPa | 0 mm | - | 168 W/m² | - |
| 1778175846 | 17.78° C | 49% | 1018.1 hPa | 0 mm | - | 120 W/m² | - |
| 1778175544 | 17.78° C | 49% | 1018.3 hPa | 0 mm | - | 113 W/m² | - |
| 1778175241 | 17.22° C | 50% | 1018.3 hPa | 0 mm | - | 114 W/m² | - |
| 1778174937 | 17.78° C | 48% | 1018.5 hPa | 0 mm | - | 601 W/m² | - |
| 1778174634 | 17.22° C | 48% | 1018.7 hPa | 0 mm | - | 58 W/m² | - |
| 1778174330 | 17.22° C | 46% | 1018.7 hPa | 0 mm | - | 109 W/m² | - |
| 1778174027 | 17.22° C | 49% | 1018.6 hPa | 0 mm | - | 63 W/m² | - |
| 1778173724 | 17.78° C | 48% | 1018.7 hPa | 0 mm | - | 70 W/m² | - |
| 1778173420 | 17.22° C | 48% | 1019 hPa | 0 mm | - | 61 W/m² | - |
| 1778173116 | 17.22° C | 47% | 1019 hPa | 0 mm | - | 66 W/m² | - |
| 1778172812 | 17.22° C | 47% | 1018.9 hPa | 0 mm | - | 55 W/m² | - |
* Rain latest hour (hover to see other rain measurements)
** Current wind speed in m/s (hover to see current wind gust speed)